Tracking 29892 objects as of 21-Nov-2024
HD Live streaming from Space Station
objects crossing your sky now

STARLINK-30201

Track STARLINK-30201 now!
10-day predictions
STARLINK-30201 is classified as:


NORAD ID: 57301
Int'l Code: 2023-096M
Perigee: 565.5 km
Apogee: 566.8 km
Inclination: 43.0 °
Period: 95.8 minutes
Semi major axis: 6937 km
RCS: Unknown
Launch date: July 10, 2023
Source: United States (US)
Launch site: AIR FORCE EASTERN TEST RANGE (AFETR)
Your satellite tracking list
Your tracking list is empty




NASA's NSSDC Master Catalog

Two Line Element Set (TLE):
1 57301U 23096M   24325.94320982  .00004338  00000-0  33585-3 0  9994
2 57301  43.0057 277.3672 0000904 241.3118 118.7634 15.02551843 75257
Source of the keplerian elements: AFSPC